Tracking 22882 objects as of 18-Apr-2021
HD Live streaming from Space Station
objects crossing your sky now

COSMOS 1433

Track COSMOS 1433 now!
10-day predictions
COSMOS 1433 is classified as:


NORAD ID: 13765
Int'l Code: 1983-002E
Perigee: 1,452.5 km
Apogee: 1,474.8 km
Inclination: 74.0 °
Period: 115.0 minutes
Semi major axis: 7834 km
RCS: 0.733 m2 (medium)
Launch date: January 19, 1983
Source: Commonwealth of Independent States (former USSR) (CIS)
Launch site: PLESETSK MISSILE AND SPACE COMPLEX (PKMTR)
aabbcc
Your satellite tracking list
Your tracking list is empty




NASA's NSSDC Master Catalog

Two Line Element Set (TLE):
1 13765U 83002E   21108.56004064 -.00000005  00000-0  70346-4 0  9992
2 13765  74.0230 249.2079 0014193 289.2765 200.1775 12.51911075748126
Source of the keplerian elements: AFSPC